Wetterdaten: Freitag, 18.10.2013
Datum Zeit Temperatur Luftfeuchte Luftdruck Regen Wind Richtung Richtung Sonnenschein ET UV Solar Taupunkt Windchill Windben
18.10.2013 00:00 10,4 C 90 % 1016,1 hPa 0,0 l/m 2,3 km/h (1 Bft) W-NW 284 0 min 0,000 mm 0,0 UV-I 0 W/m 8,8 C 10,4 C 6,4 km/h (2 Bft)
18.10.2013 00:05 10,4 C 90 % 1016,1 hPa 0,0 l/m 4,5 km/h (1 Bft) W 277 0 min 0,000 mm 0,0 UV-I 0 W/m 8,8 C 10,4 C 12,9 km/h (3 Bft)
18.10.2013 00:10 10,5 C 90 % 1016,1 hPa 0,0 l/m 4,2 km/h (1 Bft) W 261 0 min 0,000 mm 0,0 UV-I 0 W/m 8,9 C 10,5 C 9,7 km/h (2 Bft)
18.10.2013 00:15 10,5 C 90 % 1016,2 hPa 0,0 l/m 3,0 km/h (1 Bft) W-NW 282 0 min 0,000 mm 0,0 UV-I 0 W/m 8,9 C 10,5 C 8,0 km/h (2 Bft)
18.10.2013 00:20 10,5 C 90 % 1016,3 hPa 0,0 l/m 4,1 km/h (1 Bft) W-NW 290 0 min 0,000 mm 0,0 UV-I 0 W/m 8,9 C 10,5 C 8,0 km/h (2 Bft)
18.10.2013 00:25 10,5 C 90 % 1016,2 hPa 0,0 l/m 3,5 km/h (1 Bft) W 263 0 min 0,000 mm 0,0 UV-I 0 W/m 8,9 C 10,5 C 8,0 km/h (2 Bft)
18.10.2013 00:30 10,5 C 90 % 1016,3 hPa 0,0 l/m 2,6 km/h (1 Bft) W 266 0 min 0,000 mm 0,0 UV-I 0 W/m 8,9 C 10,5 C 6,4 km/h (2 Bft)
18.10.2013 00:35 10,5 C 90 % 1016,3 hPa 0,0 l/m 1,5 km/h (1 Bft) W 269 0 min 0,000 mm 0,0 UV-I 0 W/m 8,9 C 10,5 C 4,8 km/h (1 Bft)
18.10.2013 00:40 10,4 C 90 % 1016,3 hPa 0,0 l/m 2,3 km/h (1 Bft) W-NW 291 0 min 0,000 mm 0,0 UV-I 0 W/m 8,8 C 10,4 C 6,4 km/h (2 Bft)
18.10.2013 00:45 10,5 C 90 % 1016,4 hPa 0,0 l/m 1,4 km/h (1 Bft) W-SW 238 0 min 0,000 mm 0,0 UV-I 0 W/m 8,9 C 10,5 C 6,4 km/h (2 Bft)
18.10.2013 00:50 10,5 C 90 % 1016,5 hPa 0,0 l/m 0,5 km/h (0 Bft) W-SW 239 0 min 0,000 mm 0,0 UV-I 0 W/m 8,9 C 10,5 C 3,2 km/h (1 Bft)
18.10.2013 00:55 10,6 C 90 % 1016,5 hPa 0,0 l/m 1,8 km/h (1 Bft) W 273 0 min 0,000 mm 0,0 UV-I 0 W/m 9,0 C 10,6 C 6,4 km/h (2 Bft)
18.10.2013 01:00 10,6 C 90 % 1016,5 hPa 0,0 l/m 0,5 km/h (0 Bft) W 273 0 min 0,000 mm 0,0 UV-I 0 W/m 9,0 C 10,6 C 3,2 km/h (1 Bft)
18.10.2013 01:05 10,6 C 90 % 1016,6 hPa 0,0 l/m 0,1 km/h (0 Bft) W 273 0 min 0,000 mm 0,0 UV-I 0 W/m 9,0 C 10,6 C 1,6 km/h (1 Bft)
18.10.2013 01:10 10,6 C 91 % 1016,7 hPa 0,0 l/m 0,5 km/h (0 Bft) W 273 0 min 0,000 mm 0,0 UV-I 0 W/m 9,2 C 10,6 C 3,2 km/h (1 Bft)
18.10.2013 01:15 10,6 C 90 % 1016,7 hPa 0,0 l/m 0,9 km/h (0 Bft) W-NW 297 0 min 0,000 mm 0,0 UV-I 0 W/m 9,0 C 10,6 C 4,8 km/h (1 Bft)
18.10.2013 01:20 10,6 C 90 % 1016,7 hPa 0,0 l/m 1,5 km/h (1 Bft) W 276 0 min 0,000 mm 0,0 UV-I 0 W/m 9,0 C 10,6 C 4,8 km/h (1 Bft)
18.10.2013 01:25 10,6 C 89 % 1016,7 hPa 0,0 l/m 3,9 km/h (1 Bft) W-NW 300 0 min 0,000 mm 0,0 UV-I 0 W/m 8,9 C 10,6 C 11,3 km/h (2 Bft)
18.10.2013 01:30 10,7 C 89 % 1016,7 hPa 0,0 l/m 1,9 km/h (1 Bft) W-NW 286 0 min 0,000 mm 0,0 UV-I 0 W/m 9,0 C 10,7 C 6,4 km/h (2 Bft)
18.10.2013 01:35 10,7 C 89 % 1016,8 hPa 0,0 l/m 4,1 km/h (1 Bft) W 279 0 min 0,000 mm 0,0 UV-I 0 W/m 9,0 C 10,7 C 11,3 km/h (2 Bft)
18.10.2013 01:40 10,7 C 89 % 1016,8 hPa 0,0 l/m 1,2 km/h (1 Bft) W-NW 284 0 min 0,000 mm 0,0 UV-I 0 W/m 9,0 C 10,7 C 4,8 km/h (1 Bft)
18.10.2013 01:45 10,7 C 89 % 1016,8 hPa 0,0 l/m 1,9 km/h (1 Bft) W-NW 284 0 min 0,000 mm 0,0 UV-I 0 W/m 9,0 C 10,7 C 4,8 km/h (1 Bft)
18.10.2013 01:50 10,7 C 89 % 1016,8 hPa 0,0 l/m 1,4 km/h (1 Bft) W-NW 282 0 min 0,000 mm 0,0 UV-I 0 W/m 9,0 C 10,7 C 6,4 km/h (2 Bft)
18.10.2013 01:55 10,7 C 89 % 1016,8 hPa 0,0 l/m 1,2 km/h (1 Bft) W-NW 282 0 min 0,000 mm 0,0 UV-I 0 W/m 9,0 C 10,7 C 3,2 km/h (1 Bft)
18.10.2013 02:00 10,7 C 89 % 1016,9 hPa 0,0 l/m 1,5 km/h (1 Bft) W 277 0 min 0,000 mm 0,0 UV-I 0 W/m 9,0 C 10,7 C 4,8 km/h (1 Bft)
18.10.2013 02:05 10,6 C 90 % 1016,9 hPa 0,0 l/m 2,5 km/h (1 Bft) W 267 0 min 0,000 mm 0,0 UV-I 0 W/m 9,0 C 10,6 C 4,8 km/h (1 Bft)
18.10.2013 02:10 10,6 C 90 % 1016,9 hPa 0,0 l/m 1,2 km/h (1 Bft) W-SW 258 0 min 0,000 mm 0,0 UV-I 0 W/m 9,0 C 10,6 C 4,8 km/h (1 Bft)
18.10.2013 02:15 10,5 C 90 % 1017,0 hPa 0,0 l/m 1,2 km/h (1 Bft) W 270 0 min 0,000 mm 0,0 UV-I 0 W/m 8,9 C 10,5 C 3,2 km/h (1 Bft)
18.10.2013 02:20 10,5 C 90 % 1017,0 hPa 0,0 l/m 2,2 km/h (1 Bft) W-NW 297 0 min 0,000 mm 0,0 UV-I 0 W/m 8,9 C 10,5 C 4,8 km/h (1 Bft)
18.10.2013 02:25 10,5 C 90 % 1017,0 hPa 0,0 l/m 0,8 km/h (0 Bft) W-NW 297 0 min 0,000 mm 0,0 UV-I 0 W/m 8,9 C 10,5 C 3,2 km/h (1 Bft)
18.10.2013 02:30 10,6 C 90 % 1017,0 hPa 0,0 l/m 1,5 km/h (1 Bft) W-NW 297 0 min 0,000 mm 0,0 UV-I 0 W/m 9,0 C 10,6 C 4,8 km/h (1 Bft)
18.10.2013 02:35 10,6 C 90 % 1017,0 hPa 0,0 l/m 2,1 km/h (1 Bft) W 277 0 min 0,000 mm 0,0 UV-I 0 W/m 9,0 C 10,6 C 8,0 km/h (2 Bft)
18.10.2013 02:40 10,6 C 90 % 1017,0 hPa 0,0 l/m 3,1 km/h (1 Bft) W 268 0 min 0,000 mm 0,0 UV-I 0 W/m 9,0 C 10,6 C 6,4 km/h (2 Bft)
18.10.2013 02:45 10,7 C 90 % 1017,0 hPa 0,0 l/m 1,3 km/h (1 Bft) W 262 0 min 0,000 mm 0,0 UV-I 0 W/m 9,1 C 10,7 C 4,8 km/h (1 Bft)
18.10.2013 02:50 10,7 C 90 % 1017,0 hPa 0,0 l/m 4,1 km/h (1 Bft) W-NW 294 0 min 0,000 mm 0,0 UV-I 0 W/m 9,1 C 10,7 C 8,0 km/h (2 Bft)
18.10.2013 02:55 10,7 C 90 % 1017,0 hPa 0,0 l/m 1,6 km/h (1 Bft) W-NW 288 0 min 0,000 mm 0,0 UV-I 0 W/m 9,1 C 10,7 C 6,4 km/h (2 Bft)
18.10.2013 03:00 10,7 C 89 % 1017,1 hPa 0,0 l/m 4,8 km/h (1 Bft) W 281 0 min 0,000 mm 0,0 UV-I 0 W/m 9,0 C 10,7 C 11,3 km/h (2 Bft)
18.10.2013 03:05 10,8 C 89 % 1017,0 hPa 0,0 l/m 3,7 km/h (1 Bft) W-SW 254 0 min 0,000 mm 0,0 UV-I 0 W/m 9,1 C 10,8 C 11,3 km/h (2 Bft)
18.10.2013 03:10 10,8 C 88 % 1017,0 hPa 0,0 l/m 2,5 km/h (1 Bft) W 273 0 min 0,000 mm 0,0 UV-I 0 W/m 8,9 C 10,8 C 6,4 km/h (2 Bft)
18.10.2013 03:15 10,8 C 88 % 1017,0 hPa 0,0 l/m 3,8 km/h (1 Bft) W 271 0 min 0,000 mm 0,0 UV-I 0 W/m 8,9 C 10,8 C 6,4 km/h (2 Bft)
18.10.2013 03:20 10,7 C 88 % 1017,0 hPa 0,0 l/m 4,5 km/h (1 Bft) W-NW 289 0 min 0,000 mm 0,0 UV-I 0 W/m 8,8 C 10,7 C 8,0 km/h (2 Bft)
18.10.2013 03:25 10,7 C 88 % 1016,9 hPa 0,0 l/m 2,8 km/h (1 Bft) W-SW 242 0 min 0,000 mm 0,0 UV-I 0 W/m 8,8 C 10,7 C 6,4 km/h (2 Bft)
18.10.2013 03:30 10,6 C 88 % 1016,9 hPa 0,0 l/m 2,7 km/h (1 Bft) W-NW 302 0 min 0,000 mm 0,0 UV-I 0 W/m 8,7 C 10,6 C 8,0 km/h (2 Bft)
18.10.2013 03:35 10,5 C 88 % 1016,9 hPa 0,0 l/m 2,8 km/h (1 Bft) W 271 0 min 0,000 mm 0,0 UV-I 0 W/m 8,6 C 10,5 C 8,0 km/h (2 Bft)
18.10.2013 03:40 10,4 C 89 % 1016,8 hPa 0,0 l/m 4,9 km/h (1 Bft) W 265 0 min 0,000 mm 0,0 UV-I 0 W/m 8,7 C 10,4 C 9,7 km/h (2 Bft)
18.10.2013 03:45 10,4 C 89 % 1016,9 hPa 0,0 l/m 3,7 km/h (1 Bft) W-NW 284 0 min 0,000 mm 0,0 UV-I 0 W/m 8,7 C 10,4 C 11,3 km/h (2 Bft)
18.10.2013 03:50 10,3 C 89 % 1016,9 hPa 0,0 l/m 2,6 km/h (1 Bft) W-NW 296 0 min 0,000 mm 0,0 UV-I 0 W/m 8,6 C 10,3 C 6,4 km/h (2 Bft)
18.10.2013 03:55 10,2 C 89 % 1016,9 hPa 0,0 l/m 0,8 km/h (0 Bft) W-NW 296 0 min 0,000 mm 0,0 UV-I 0 W/m 8,5 C 10,2 C 4,8 km/h (1 Bft)
18.10.2013 04:00 10,1 C 89 % 1017,0 hPa 0,0 l/m 0,8 km/h (0 Bft) W-NW 295 0 min 0,000 mm 0,0 UV-I 0 W/m 8,4 C 10,1 C 4,8 km/h (1 Bft)
18.10.2013 04:05 9,9 C 89 % 1017,0 hPa 0,0 l/m 0,2 km/h (0 Bft) W-NW 295 0 min 0,000 mm 0,0 UV-I 0 W/m 8,2 C 9,9 C 1,6 km/h (1 Bft)
18.10.2013 04:10 9,7 C 89 % 1017,0 hPa 0,0 l/m 0,2 km/h (0 Bft) W-NW 295 0 min 0,000 mm 0,0 UV-I 0 W/m 8,0 C 9,7 C 1,6 km/h (1 Bft)
18.10.2013 04:15 9,5 C 90 % 1017,1 hPa 0,0 l/m 0,2 km/h (0 Bft) W-NW 295 0 min 0,000 mm 0,0 UV-I 0 W/m 7,9 C 9,5 C 1,6 km/h (1 Bft)
18.10.2013 04:20 9,4 C 90 % 1017,2 hPa 0,0 l/m 1,0 km/h (0 Bft) W-NW 295 0 min 0,000 mm 0,0 UV-I 0 W/m 7,8 C 9,4 C 4,8 km/h (1 Bft)
18.10.2013 04:25 9,5 C 91 % 1017,2 hPa 0,0 l/m 1,8 km/h (1 Bft) W-NW 297 0 min 0,000 mm 0,0 UV-I 0 W/m 8,1 C 9,5 C 6,4 km/h (2 Bft)
18.10.2013 04:30 9,7 C 91 % 1017,3 hPa 0,0 l/m 4,3 km/h (1 Bft) W-NW 286 0 min 0,000 mm 0,0 UV-I 0 W/m 8,3 C 9,7 C 11,3 km/h (2 Bft)
18.10.2013 04:35 9,9 C 90 % 1017,3 hPa 0,0 l/m 4,7 km/h (1 Bft) W-NW 293 0 min 0,000 mm 0,0 UV-I 0 W/m 8,3 C 9,9 C 9,7 km/h (2 Bft)
18.10.2013 04:40 10,1 C 90 % 1017,2 hPa 0,0 l/m 3,9 km/h (1 Bft) W 274 0 min 0,000 mm 0,0 UV-I 0 W/m 8,5 C 10,1 C 9,7 km/h (2 Bft)
18.10.2013 04:45 10,2 C 89 % 1017,2 hPa 0,0 l/m 3,6 km/h (1 Bft) W-NW 286 0 min 0,000 mm 0,0 UV-I 0 W/m 8,5 C 10,2 C 8,0 km/h (2 Bft)
18.10.2013 04:50 10,2 C 89 % 1017,3 hPa 0,0 l/m 4,5 km/h (1 Bft) W 268 0 min 0,000 mm 0,0 UV-I 0 W/m 8,5 C 10,2 C 16,1 km/h (3 Bft)
18.10.2013 04:55 10,2 C 88 % 1017,4 hPa 0,0 l/m 4,5 km/h (1 Bft) W-NW 298 0 min 0,000 mm 0,0 UV-I 0 W/m 8,3 C 10,2 C 11,3 km/h (2 Bft)
18.10.2013 05:00 10,1 C 88 % 1017,4 hPa 0,0 l/m 2,7 km/h (1 Bft) W 281 0 min 0,000 mm 0,0 UV-I 0 W/m 8,2 C 10,1 C 8,0 km/h (2 Bft)
18.10.2013 05:05 10,1 C 89 % 1017,5 hPa 0,0 l/m 1,3 km/h (1 Bft) W 272 0 min 0,000 mm 0,0 UV-I 0 W/m 8,4 C 10,1 C 6,4 km/h (2 Bft)
18.10.2013 05:10 10,0 C 89 % 1017,6 hPa 0,0 l/m 1,5 km/h (1 Bft) W-NW 299 0 min 0,000 mm 0,0 UV-I 0 W/m 8,3 C 10,0 C 6,4 km/h (2 Bft)
18.10.2013 05:15 9,9 C 89 % 1017,4 hPa 0,0 l/m 0,2 km/h (0 Bft) W-NW 299 0 min 0,000 mm 0,0 UV-I 0 W/m 8,2 C 9,9 C 3,2 km/h (1 Bft)
18.10.2013 05:20 9,7 C 89 % 1017,5 hPa 0,0 l/m 0,0 km/h (0 Bft) W-NW 299 0 min 0,000 mm 0,0 UV-I 0 W/m 8,0 C 9,7 C 0,0 km/h (0 Bft)
18.10.2013 05:25 9,6 C 89 % 1017,5 hPa 0,0 l/m 0,0 km/h (0 Bft) W-NW 299 0 min 0,000 mm 0,0 UV-I 0 W/m 7,9 C 9,6 C 0,0 km/h (0 Bft)
18.10.2013 05:30 9,3 C 89 % 1017,5 hPa 0,0 l/m 0,0 km/h (0 Bft) W-NW 299 0 min 0,000 mm 0,0 UV-I 0 W/m 7,6 C 9,3 C 0,0 km/h (0 Bft)
18.10.2013 05:35 9,2 C 89 % 1017,6 hPa 0,0 l/m 0,0 km/h (0 Bft) W-NW 299 0 min 0,000 mm 0,0 UV-I 0 W/m 7,5 C 9,2 C 0,0 km/h (0 Bft)
18.10.2013 05:40 9,0 C 89 % 1017,7 hPa 0,0 l/m 0,0 km/h (0 Bft) W-NW 299 0 min 0,000 mm 0,0 UV-I 0 W/m 7,3 C 9,0 C 0,0 km/h (0 Bft)
18.10.2013 05:45 8,8 C 89 % 1017,8 hPa 0,0 l/m 0,0 km/h (0 Bft) W-NW 299 0 min 0,000 mm 0,0 UV-I 0 W/m 7,1 C 8,8 C 0,0 km/h (0 Bft)
18.10.2013 05:50 8,6 C 89 % 1017,8 hPa 0,0 l/m 0,0 km/h (0 Bft) W-NW 299 0 min 0,000 mm 0,0 UV-I 0 W/m 6,9 C 8,6 C 0,0 km/h (0 Bft)
18.10.2013 05:55 8,4 C 89 % 1017,8 hPa 0,0 l/m 0,0 km/h (0 Bft) W-NW 299 0 min 0,000 mm 0,0 UV-I 0 W/m 6,7 C 8,4 C 0,0 km/h (0 Bft)
18.10.2013 06:00 8,2 C 90 % 1017,8 hPa 0,0 l/m 0,0 km/h (0 Bft) W-NW 299 0 min 0,000 mm 0,0 UV-I 0 W/m 6,7 C 8,2 C 0,0 km/h (0 Bft)
18.10.2013 06:05 8,1 C 90 % 1017,9 hPa 0,0 l/m 0,0 km/h (0 Bft) W-NW 299 0 min 0,000 mm 0,0 UV-I 0 W/m 6,6 C 8,1 C 0,0 km/h (0 Bft)
18.10.2013 06:10 7,9 C 91 % 1018,0 hPa 0,0 l/m 0,0 km/h (0 Bft) W-NW 299 0 min 0,000 mm 0,0 UV-I 0 W/m 6,5 C 7,9 C 0,0 km/h (0 Bft)
18.10.2013 06:15 7,7 C 91 % 1018,0 hPa 0,0 l/m 0,0 km/h (0 Bft) W-NW 299 0 min 0,000 mm 0,0 UV-I 0 W/m 6,3 C 7,7 C 0,0 km/h (0 Bft)
18.10.2013 06:20 7,6 C 91 % 1017,9 hPa 0,0 l/m 0,0 km/h (0 Bft) W-NW 299 0 min 0,000 mm 0,0 UV-I 0 W/m 6,2 C 7,6 C 0,0 km/h (0 Bft)
18.10.2013 06:25 7,5 C 91 % 1017,9 hPa 0,0 l/m 0,0 km/h (0 Bft) W-NW 299 0 min 0,000 mm 0,0 UV-I 0 W/m 6,1 C 7,5 C 1,6 km/h (1 Bft)
18.10.2013 06:30 7,4 C 92 % 1018,0 hPa 0,0 l/m 0,0 km/h (0 Bft) W-NW 299 0 min 0,000 mm 0,0 UV-I 0 W/m 6,2 C 7,4 C 0,0 km/h (0 Bft)
18.10.2013 06:35 7,2 C 91 % 1017,9 hPa 0,0 l/m 0,0 km/h (0 Bft) W-NW 299 0 min 0,000 mm 0,0 UV-I 0 W/m 5,8 C 7,2 C 1,6 km/h (1 Bft)
18.10.2013 06:40 7,1 C 91 % 1017,9 hPa 0,0 l/m 0,0 km/h (0 Bft) W-NW 299 0 min 0,000 mm 0,0 UV-I 0 W/m 5,7 C 7,1 C 0,0 km/h (0 Bft)
18.10.2013 06:45 7,1 C 92 % 1018,0 hPa 0,0 l/m 0,0 km/h (0 Bft) W-NW 299 0 min 0,000 mm 0,0 UV-I 0 W/m 5,9 C 7,1 C 0,0 km/h (0 Bft)
18.10.2013 06:50 6,9 C 92 % 1018,0 hPa 0,0 l/m 0,0 km/h (0 Bft) W-NW 299 0 min 0,000 mm 0,0 UV-I 0 W/m 5,7 C 6,9 C 0,0 km/h (0 Bft)
18.10.2013 06:55 6,8 C 92 % 1018,0 hPa 0,0 l/m 0,0 km/h (0 Bft) W-NW 299 0 min 0,000 mm 0,0 UV-I 0 W/m 5,6 C 6,8 C 0,0 km/h (0 Bft)
18.10.2013 07:00 6,7 C 92 % 1018,0 hPa 0,0 l/m 0,0 km/h (0 Bft) W-NW 299 0 min 0,000 mm 0,0 UV-I 0 W/m 5,5 C 6,7 C 0,0 km/h (0 Bft)
18.10.2013 07:05 6,5 C 92 % 1018,0 hPa 0,0 l/m 0,0 km/h (0 Bft) W-NW 299 0 min 0,000 mm 0,0 UV-I 0 W/m 5,3 C 6,5 C 0,0 km/h (0 Bft)
18.10.2013 07:10 6,4 C 92 % 1018,1 hPa 0,0 l/m 0,0 km/h (0 Bft) W-NW 299 0 min 0,000 mm 0,0 UV-I 0 W/m 5,2 C 6,4 C 0,0 km/h (0 Bft)
18.10.2013 07:15 6,3 C 92 % 1018,1 hPa 0,0 l/m 0,0 km/h (0 Bft) W-NW 299 0 min 0,000 mm 0,0 UV-I 0 W/m 5,1 C 6,3 C 0,0 km/h (0 Bft)
18.10.2013 07:20 6,2 C 92 % 1018,2 hPa 0,0 l/m 0,0 km/h (0 Bft) W-NW 299 0 min 0,000 mm 0,0 UV-I 0 W/m 5,0 C 6,2 C 0,0 km/h (0 Bft)
18.10.2013 07:25 6,2 C 93 % 1018,3 hPa 0,0 l/m 0,0 km/h (0 Bft) W-NW 299 0 min 0,000 mm 0,0 UV-I 0 W/m 5,2 C 6,2 C 0,0 km/h (0 Bft)
18.10.2013 07:30 6,1 C 93 % 1018,3 hPa 0,0 l/m 0,0 km/h (0 Bft) W-NW 299 0 min 0,000 mm 0,0 UV-I 0 W/m 5,1 C 6,1 C 0,0 km/h (0 Bft)
18.10.2013 07:35 6,0 C 93 % 1018,3 hPa 0,0 l/m 0,0 km/h (0 Bft) W-NW 299 0 min 0,000 mm 0,0 UV-I 0 W/m 5,0 C 6,0 C 0,0 km/h (0 Bft)
18.10.2013 07:40 6,1 C 93 % 1018,3 hPa 0,0 l/m 0,0 km/h (0 Bft) W-NW 299 0 min 0,000 mm 0,0 UV-I 0 W/m 5,1 C 6,1 C 0,0 km/h (0 Bft)
18.10.2013 07:45 6,0 C 93 % 1018,5 hPa 0,0 l/m 0,0 km/h (0 Bft) W-NW 299 0 min 0,000 mm 0,0 UV-I 0 W/m 5,0 C 6,0 C 0,0 km/h (0 Bft)
18.10.2013 07:50 5,9 C 93 % 1018,5 hPa 0,0 l/m 0,0 km/h (0 Bft) W-NW 299 0 min 0,000 mm 0,0 UV-I 0 W/m 4,9 C 5,9 C 0,0 km/h (0 Bft)
18.10.2013 07:55 5,9 C 94 % 1018,6 hPa 0,0 l/m 0,0 km/h (0 Bft) W-NW 299 0 min 0,000 mm 0,0 UV-I 5 W/m 5,0 C 5,9 C 0,0 km/h (0 Bft)
18.10.2013 08:00 5,9 C 94 % 1018,6 hPa 0,0 l/m 0,0 km/h (0 Bft) W-NW 299 0 min 0,000 mm 0,0 UV-I 7 W/m 5,0 C 5,9 C 0,0 km/h (0 Bft)
18.10.2013 08:05 5,9 C 94 % 1018,7 hPa 0,0 l/m 0,0 km/h (0 Bft) W-NW 299 0 min 0,000 mm 0,0 UV-I 7 W/m 5,0 C 5,9 C 1,6 km/h (1 Bft)
18.10.2013 08:10 5,9 C 94 % 1018,8 hPa 0,0 l/m 0,0 km/h (0 Bft) W-NW 299 0 min 0,000 mm 0,0 UV-I 9 W/m 5,0 C 5,9 C 1,6 km/h (1 Bft)
18.10.2013 08:15 6,0 C 94 % 1018,9 hPa 0,0 l/m 0,0 km/h (0 Bft) W-NW 299 0 min 0,000 mm 0,0 UV-I 21 W/m 5,1 C 6,0 C 0,0 km/h (0 Bft)
18.10.2013 08:20 6,1 C 94 % 1018,9 hPa 0,0 l/m 0,0 km/h (0 Bft) W-NW 299 5 min 0,000 mm 0,0 UV-I 32 W/m 5,2 C 6,1 C 1,6 km/h (1 Bft)
18.10.2013 08:25 6,2 C 95 % 1019,0 hPa 0,0 l/m 0,0 km/h (0 Bft) W-NW 299 0 min 0,000 mm 0,0 UV-I 32 W/m 5,5 C 6,2 C 0,0 km/h (0 Bft)
18.10.2013 08:30 6,3 C 95 % 1019,0 hPa 0,0 l/m 0,0 km/h (0 Bft) W-NW 299 0 min 0,000 mm 0,0 UV-I 39 W/m 5,6 C 6,3 C 0,0 km/h (0 Bft)
18.10.2013 08:35 6,5 C 95 % 1019,0 hPa 0,0 l/m 0,0 km/h (0 Bft) W-NW 299 0 min 0,000 mm 0,0 UV-I 40 W/m 5,8 C 6,5 C 1,6 km/h (1 Bft)
18.10.2013 08:40 6,6 C 95 % 1019,1 hPa 0,0 l/m 0,5 km/h (0 Bft) W-NW 299 0 min 0,000 mm 0,0 UV-I 30 W/m 5,9 C 6,6 C 3,2 km/h (1 Bft)
18.10.2013 08:45 6,8 C 95 % 1019,0 hPa 0,0 l/m 0,9 km/h (0 Bft) W-NW 299 0 min 0,000 mm 0,0 UV-I 37 W/m 6,1 C 6,8 C 4,8 km/h (1 Bft)
18.10.2013 08:50 7,1 C 95 % 1019,0 hPa 0,0 l/m 0,0 km/h (0 Bft) W-NW 299 0 min 0,000 mm 0,0 UV-I 56 W/m 6,4 C 7,1 C 1,6 km/h (1 Bft)
18.10.2013 08:55 7,3 C 95 % 1019,1 hPa 0,0 l/m 0,0 km/h (0 Bft) W-NW 299 0 min 0,000 mm 0,0 UV-I 63 W/m 6,6 C 7,3 C 0,0 km/h (0 Bft)
18.10.2013 09:00 7,5 C 96 % 1019,0 hPa 0,0 l/m 0,0 km/h (0 Bft) W-NW 299 5 min 0,025 mm 0,0 UV-I 102 W/m 6,9 C 7,5 C 0,0 km/h (0 Bft)
18.10.2013 09:05 7,8 C 96 % 1019,0 hPa 0,0 l/m 0,0 km/h (0 Bft) W-NW 299 5 min 0,000 mm 0,0 UV-I 125 W/m 7,2 C 7,8 C 1,6 km/h (1 Bft)
18.10.2013 09:10 8,2 C 95 % 1019,0 hPa 0,0 l/m 0,0 km/h (0 Bft) W-NW 299 5 min 0,000 mm 0,0 UV-I 137 W/m 7,4 C 8,2 C 1,6 km/h (1 Bft)
18.10.2013 09:15 8,7 C 95 % 1018,9 hPa 0,0 l/m 0,2 km/h (0 Bft) W-NW 299 5 min 0,000 mm 0,0 UV-I 151 W/m 7,9 C 8,7 C 3,2 km/h (1 Bft)
18.10.2013 09:20 9,1 C 93 % 1019,0 hPa 0,0 l/m 0,0 km/h (0 Bft) W-NW 299 5 min 0,000 mm 0,0 UV-I 162 W/m 8,0 C 9,1 C 0,0 km/h (0 Bft)
18.10.2013 09:25 9,2 C 92 % 1019,0 hPa 0,0 l/m 0,8 km/h (0 Bft) S-SO 165 5 min 0,000 mm 0,0 UV-I 171 W/m 8,0 C 9,2 C 4,8 km/h (1 Bft)
18.10.2013 09:30 8,7 C 91 % 1019,1 hPa 0,0 l/m 1,3 km/h (1 Bft) S-SO 150 5 min 0,000 mm 0,5 UV-I 163 W/m 7,3 C 8,7 C 4,8 km/h (1 Bft)
18.10.2013 09:35 8,4 C 92 % 1019,2 hPa 0,0 l/m 0,2 km/h (0 Bft) S-SO 150 5 min 0,000 mm 0,5 UV-I 188 W/m 7,2 C 8,4 C 3,2 km/h (1 Bft)
18.10.2013 09:40 8,7 C 92 % 1019,1 hPa 0,0 l/m 0,0 km/h (0 Bft) S-SO 150 5 min 0,000 mm 0,5 UV-I 200 W/m 7,5 C 8,7 C 1,6 km/h (1 Bft)
18.10.2013 09:45 9,2 C 92 % 1019,1 hPa 0,0 l/m 0,2 km/h (0 Bft) S-SO 160 5 min 0,000 mm 0,6 UV-I 209 W/m 8,0 C 9,2 C 3,2 km/h (1 Bft)
18.10.2013 09:50 9,0 C 91 % 1019,2 hPa 0,0 l/m 2,2 km/h (1 Bft) W 267 5 min 0,000 mm 0,6 UV-I 218 W/m 7,6 C 9,0 C 6,4 km/h (2 Bft)
18.10.2013 09:55 9,3 C 92 % 1019,3 hPa 0,0 l/m 1,3 km/h (1 Bft) W 267 5 min 0,000 mm 0,6 UV-I 223 W/m 8,1 C 9,3 C 4,8 km/h (1 Bft)
18.10.2013 10:00 9,8 C 91 % 1019,3 hPa 0,0 l/m 0,3 km/h (0 Bft) W 260 5 min 0,000 mm 0,7 UV-I 234 W/m 8,4 C 9,8 C 3,2 km/h (1 Bft)
18.10.2013 10:05 10,1 C 90 % 1019,3 hPa 0,0 l/m 0,3 km/h (0 Bft) W 260 5 min 0,077 mm 0,7 UV-I 246 W/m 8,5 C 10,1 C 1,6 km/h (1 Bft)
18.10.2013 10:10 10,4 C 89 % 1019,3 hPa 0,0 l/m 0,7 km/h (0 Bft) W-SW 255 5 min 0,000 mm 0,8 UV-I 257 W/m 8,7 C 10,4 C 3,2 km/h (1 Bft)
18.10.2013 10:15 10,6 C 90 % 1019,4 hPa 0,0 l/m 0,5 km/h (0 Bft) W-SW 254 5 min 0,000 mm 0,8 UV-I 269 W/m 9,0 C 10,6 C 4,8 km/h (1 Bft)
18.10.2013 10:20 10,8 C 89 % 1019,5 hPa 0,0 l/m 1,4 km/h (1 Bft) W-SW 238 5 min 0,000 mm 0,9 UV-I 279 W/m 9,1 C 10,8 C 4,8 km/h (1 Bft)
18.10.2013 10:25 10,7 C 89 % 1019,5 hPa 0,0 l/m 2,8 km/h (1 Bft) W-SW 249 5 min 0,000 mm 0,9 UV-I 218 W/m 9,0 C 10,7 C 6,4 km/h (2 Bft)
18.10.2013 10:30 10,9 C 89 % 1019,5 hPa 0,0 l/m 1,3 km/h (1 Bft) SW 220 5 min 0,000 mm 0,9 UV-I 218 W/m 9,2 C 10,9 C 6,4 km/h (2 Bft)
18.10.2013 10:35 11,1 C 89 % 1019,4 hPa 0,0 l/m 0,9 km/h (0 Bft) S-SW 200 0 min 0,000 mm 0,8 UV-I 151 W/m 9,4 C 11,1 C 4,8 km/h (1 Bft)
18.10.2013 10:40 11,3 C 88 % 1019,5 hPa 0,0 l/m 1,0 km/h (0 Bft) S-SW 200 0 min 0,000 mm 0,9 UV-I 163 W/m 9,4 C 11,3 C 4,8 km/h (1 Bft)
18.10.2013 10:45 11,4 C 88 % 1019,5 hPa 0,0 l/m 0,8 km/h (0 Bft) S-SW 201 5 min 0,000 mm 1,1 UV-I 302 W/m 9,5 C 11,4 C 3,2 km/h (1 Bft)
18.10.2013 10:50 11,6 C 87 % 1019,5 hPa 0,0 l/m 0,6 km/h (0 Bft) S-SW 211 0 min 0,000 mm 1,0 UV-I 163 W/m 9,5 C 11,6 C 4,8 km/h (1 Bft)
18.10.2013 10:55 11,7 C 86 % 1019,6 hPa 0,0 l/m 1,9 km/h (1 Bft) W-SW 243 0 min 0,000 mm 0,9 UV-I 155 W/m 9,4 C 11,7 C 9,7 km/h (2 Bft)
18.10.2013 11:00 11,6 C 86 % 1019,5 hPa 0,0 l/m 3,7 km/h (1 Bft) W 264 0 min 0,000 mm 1,0 UV-I 127 W/m 9,3 C 11,6 C 9,7 km/h (2 Bft)
18.10.2013 11:05 11,6 C 86 % 1019,4 hPa 0,0 l/m 1,9 km/h (1 Bft) W-SW 248 0 min 0,101 mm 1,1 UV-I 169 W/m 9,3 C 11,6 C 4,8 km/h (1 Bft)
18.10.2013 11:10 11,6 C 85 % 1019,5 hPa 0,0 l/m 2,4 km/h (1 Bft) W-SW 252 0 min 0,000 mm 1,1 UV-I 125 W/m 9,2 C 11,6 C 6,4 km/h (2 Bft)
18.10.2013 11:15 11,7 C 86 % 1019,5 hPa 0,0 l/m 1,0 km/h (0 Bft) SW 223 0 min 0,000 mm 1,1 UV-I 149 W/m 9,4 C 11,7 C 4,8 km/h (1 Bft)
18.10.2013 11:20 11,9 C 85 % 1019,6 hPa 0,0 l/m 0,6 km/h (0 Bft) SW 223 0 min 0,000 mm 1,1 UV-I 127 W/m 9,5 C 11,9 C 4,8 km/h (1 Bft)
18.10.2013 11:25 12,0 C 85 % 1019,4 hPa 0,0 l/m 0,8 km/h (0 Bft) S-SW 198 0 min 0,000 mm 1,3 UV-I 174 W/m 9,6 C 12,0 C 4,8 km/h (1 Bft)
18.10.2013 11:30 12,3 C 85 % 1019,4 hPa 0,0 l/m 0,5 km/h (0 Bft) S-SW 198 0 min 0,000 mm 1,2 UV-I 237 W/m 9,9 C 12,3 C 4,8 km/h (1 Bft)
18.10.2013 11:35 12,6 C 83 % 1019,4 hPa 0,0 l/m 0,7 km/h (0 Bft) S-SW 197 5 min 0,000 mm 1,2 UV-I 272 W/m 9,8 C 12,6 C 3,2 km/h (1 Bft)
18.10.2013 11:40 12,7 C 82 % 1019,4 hPa 0,0 l/m 1,4 km/h (1 Bft) S-SW 193 5 min 0,000 mm 1,3 UV-I 308 W/m 9,7 C 12,7 C 4,8 km/h (1 Bft)
18.10.2013 11:45 13,3 C 81 % 1019,4 hPa 0,0 l/m 1,0 km/h (0 Bft) S 190 0 min 0,000 mm 1,0 UV-I 206 W/m 10,1 C 13,3 C 3,2 km/h (1 Bft)
18.10.2013 11:50 13,3 C 79 % 1019,5 hPa 0,0 l/m 0,6 km/h (0 Bft) S-SW 194 0 min 0,000 mm 1,3 UV-I 202 W/m 9,7 C 13,3 C 4,8 km/h (1 Bft)
18.10.2013 11:55 13,0 C 79 % 1019,4 hPa 0,0 l/m 1,0 km/h (0 Bft) O-SO 109 0 min 0,000 mm 1,5 UV-I 220 W/m 9,4 C 13,0 C 3,2 km/h (1 Bft)
18.10.2013 12:00 13,6 C 80 % 1019,5 hPa 0,0 l/m 1,1 km/h (1 Bft) O-SO 107 5 min 0,000 mm 1,8 UV-I 594 W/m 10,2 C 13,6 C 4,8 km/h (1 Bft)
18.10.2013 12:05 14,3 C 77 % 1019,5 hPa 0,0 l/m 0,7 km/h (0 Bft) O 91 5 min 0,127 mm 1,5 UV-I 499 W/m 10,3 C 14,3 C 4,8 km/h (1 Bft)
18.10.2013 12:10 14,1 C 75 % 1019,5 hPa 0,0 l/m 2,0 km/h (1 Bft) SO 137 0 min 0,000 mm 1,2 UV-I 250 W/m 9,7 C 14,1 C 4,8 km/h (1 Bft)
18.10.2013 12:15 13,9 C 78 % 1019,6 hPa 0,0 l/m 0,2 km/h (0 Bft) SO 141 5 min 0,000 mm 1,1 UV-I 267 W/m 10,1 C 13,9 C 3,2 km/h (1 Bft)
18.10.2013 12:20 13,9 C 77 % 1019,7 hPa 0,0 l/m 1,2 km/h (1 Bft) SO 145 0 min 0,000 mm 0,9 UV-I 199 W/m 9,9 C 13,9 C 4,8 km/h (1 Bft)
18.10.2013 12:25 14,2 C 76 % 1019,7 hPa 0,0 l/m 0,3 km/h (0 Bft) SO 143 0 min 0,000 mm 1,2 UV-I 214 W/m 10,0 C 14,2 C 3,2 km/h (1 Bft)
18.10.2013 12:30 13,6 C 76 % 1019,7 hPa 0,0 l/m 1,2 km/h (1 Bft) SO 131 0 min 0,000 mm 1,5 UV-I 244 W/m 9,4 C 13,6 C 6,4 km/h (2 Bft)
18.10.2013 12:35 14,6 C 76 % 1019,6 hPa 0,0 l/m 1,2 km/h (1 Bft) S 188 5 min 0,000 mm 2,1 UV-I 543 W/m 10,4 C 14,6 C 4,8 km/h (1 Bft)
18.10.2013 12:40 14,9 C 74 % 1019,5 hPa 0,0 l/m 2,2 km/h (1 Bft) S-SW 209 5 min 0,000 mm 2,1 UV-I 545 W/m 10,3 C 14,9 C 6,4 km/h (2 Bft)
18.10.2013 12:45 15,6 C 72 % 1019,4 hPa 0,0 l/m 3,1 km/h (1 Bft) S-SW 196 5 min 0,000 mm 2,0 UV-I 577 W/m 10,6 C 15,6 C 6,4 km/h (2 Bft)
18.10.2013 12:50 15,9 C 71 % 1019,3 hPa 0,0 l/m 1,3 km/h (1 Bft) S 188 0 min 0,000 mm 1,4 UV-I 193 W/m 10,6 C 15,9 C 4,8 km/h (1 Bft)
18.10.2013 12:55 15,3 C 71 % 1019,4 hPa 0,0 l/m 0,8 km/h (0 Bft) SW 221 0 min 0,000 mm 1,3 UV-I 149 W/m 10,1 C 15,3 C 4,8 km/h (1 Bft)
18.10.2013 13:00 15,1 C 72 % 1019,4 hPa 0,0 l/m 0,0 km/h (0 Bft) SW 221 0 min 0,000 mm 1,3 UV-I 141 W/m 10,1 C 15,1 C 1,6 km/h (1 Bft)
18.10.2013 13:05 15,3 C 73 % 1019,4 hPa 0,0 l/m 0,0 km/h (0 Bft) SW 221 0 min 0,178 mm 1,3 UV-I 121 W/m 10,5 C 15,3 C 1,6 km/h (1 Bft)
18.10.2013 13:10 15,3 C 73 % 1019,3 hPa 0,0 l/m 0,0 km/h (0 Bft) SW 221 0 min 0,000 mm 1,2 UV-I 127 W/m 10,5 C 15,3 C 0,0 km/h (0 Bft)
18.10.2013 13:15 15,3 C 73 % 1019,3 hPa 0,0 l/m 0,0 km/h (0 Bft) SW 221 0 min 0,000 mm 1,2 UV-I 151 W/m 10,5 C 15,3 C 1,6 km/h (1 Bft)
18.10.2013 13:20 15,2 C 74 % 1019,3 hPa 0,0 l/m 0,0 km/h (0 Bft) SW 221 0 min 0,000 mm 1,0 UV-I 135 W/m 10,6 C 15,2 C 0,0 km/h (0 Bft)
18.10.2013 13:25 15,2 C 73 % 1019,2 hPa 0,0 l/m 0,0 km/h (0 Bft) SW 221 0 min 0,000 mm 0,9 UV-I 118 W/m 10,4 C 15,2 C 0,0 km/h (0 Bft)
18.10.2013 13:30 15,2 C 73 % 1019,1 hPa 0,0 l/m 0,0 km/h (0 Bft) SW 221 0 min 0,000 mm 1,1 UV-I 130 W/m 10,4 C 15,2 C 1,6 km/h (1 Bft)
18.10.2013 13:35 15,1 C 73 % 1019,1 hPa 0,0 l/m 0,1 km/h (0 Bft) SW 221 0 min 0,000 mm 1,3 UV-I 116 W/m 10,3 C 15,1 C 1,6 km/h (1 Bft)
18.10.2013 13:40 15,0 C 74 % 1019,1 hPa 0,0 l/m 0,0 km/h (0 Bft) SW 221 0 min 0,000 mm 1,4 UV-I 104 W/m 10,4 C 15,0 C 0,0 km/h (0 Bft)
18.10.2013 13:45 14,8 C 73 % 1019,1 hPa 0,0 l/m 0,2 km/h (0 Bft) SW 221 0 min 0,000 mm 1,5 UV-I 142 W/m 10,0 C 14,8 C 3,2 km/h (1 Bft)
18.10.2013 13:50 14,9 C 71 % 1019,1 hPa 0,0 l/m 0,3 km/h (0 Bft) SW 222 0 min 0,000 mm 1,4 UV-I 137 W/m 9,7 C 14,9 C 3,2 km/h (1 Bft)
18.10.2013 13:55 14,9 C 72 % 1019,0 hPa 0,0 l/m 0,1 km/h (0 Bft) SW 222 0 min 0,000 mm 1,3 UV-I 144 W/m 9,9 C 14,9 C 1,6 km/h (1 Bft)
18.10.2013 14:00 14,9 C 72 % 1019,1 hPa 0,0 l/m 0,0 km/h (0 Bft) SW 222 0 min 0,000 mm 1,3 UV-I 160 W/m 9,9 C 14,9 C 0,0 km/h (0 Bft)
18.10.2013 14:05 15,0 C 73 % 1019,0 hPa 0,0 l/m 0,0 km/h (0 Bft) SW 222 0 min 0,076 mm 1,3 UV-I 156 W/m 10,2 C 15,0 C 0,0 km/h (0 Bft)
18.10.2013 14:10 15,2 C 74 % 1019,0 hPa 0,0 l/m 0,0 km/h (0 Bft) SW 222 0 min 0,000 mm 1,4 UV-I 188 W/m 10,6 C 15,2 C 0,0 km/h (0 Bft)
18.10.2013 14:15 14,7 C 75 % 1019,0 hPa 0,0 l/m 3,5 km/h (1 Bft) S 186 5 min 0,000 mm 1,5 UV-I 323 W/m 10,3 C 14,7 C 8,0 km/h (2 Bft)
18.10.2013 14:20 15,0 C 74 % 1019,0 hPa 0,0 l/m 2,3 km/h (1 Bft) S 170 0 min 0,000 mm 1,4 UV-I 179 W/m 10,4 C 15,0 C 6,4 km/h (2 Bft)
18.10.2013 14:25 15,0 C 73 % 1018,9 hPa 0,0 l/m 2,5 km/h (1 Bft) SW 221 5 min 0,000 mm 1,6 UV-I 272 W/m 10,2 C 15,0 C 6,4 km/h (2 Bft)
18.10.2013 14:30 14,7 C 73 % 1018,8 hPa 0,0 l/m 4,2 km/h (1 Bft) W 274 0 min 0,000 mm 1,3 UV-I 178 W/m 9,9 C 14,7 C 8,0 km/h (2 Bft)
18.10.2013 14:35 14,4 C 75 % 1018,9 hPa 0,0 l/m 2,8 km/h (1 Bft) W-NW 288 0 min 0,000 mm 1,3 UV-I 171 W/m 10,0 C 14,4 C 8,0 km/h (2 Bft)
18.10.2013 14:40 14,5 C 74 % 1018,9 hPa 0,0 l/m 2,2 km/h (1 Bft) SW 236 0 min 0,000 mm 1,3 UV-I 171 W/m 9,9 C 14,5 C 6,4 km/h (2 Bft)
18.10.2013 14:45 14,4 C 74 % 1018,8 hPa 0,0 l/m 2,2 km/h (1 Bft) SW 235 0 min 0,000 mm 1,3 UV-I 202 W/m 9,8 C 14,4 C 6,4 km/h (2 Bft)
18.10.2013 14:50 14,7 C 73 % 1018,8 hPa 0,0 l/m 1,1 km/h (1 Bft) SW 223 0 min 0,000 mm 1,3 UV-I 204 W/m 9,9 C 14,7 C 4,8 km/h (1 Bft)
18.10.2013 14:55 14,7 C 72 % 1018,8 hPa 0,0 l/m 0,6 km/h (0 Bft) SW 221 0 min 0,000 mm 1,2 UV-I 139 W/m 9,7 C 14,7 C 3,2 km/h (1 Bft)
18.10.2013 15:00 14,7 C 71 % 1018,8 hPa 0,0 l/m 0,2 km/h (0 Bft) SW 221 5 min 0,000 mm 1,3 UV-I 329 W/m 9,5 C 14,7 C 3,2 km/h (1 Bft)
18.10.2013 15:05 14,9 C 71 % 1018,7 hPa 0,0 l/m 0,4 km/h (0 Bft) S-SO 152 5 min 0,102 mm 1,3 UV-I 322 W/m 9,7 C 14,9 C 3,2 km/h (1 Bft)
18.10.2013 15:10 15,3 C 70 % 1018,7 hPa 0,0 l/m 0,4 km/h (0 Bft) S 172 0 min 0,000 mm 1,2 UV-I 127 W/m 9,9 C 15,3 C 4,8 km/h (1 Bft)
18.10.2013 15:15 15,2 C 71 % 1018,7 hPa 0,0 l/m 1,0 km/h (0 Bft) SW 214 5 min 0,000 mm 1,2 UV-I 304 W/m 10,0 C 15,2 C 4,8 km/h (1 Bft)
18.10.2013 15:20 15,3 C 69 % 1018,7 hPa 0,0 l/m 0,2 km/h (0 Bft) SW 214 0 min 0,000 mm 1,1 UV-I 218 W/m 9,6 C 15,3 C 4,8 km/h (1 Bft)
18.10.2013 15:25 15,7 C 69 % 1018,7 hPa 0,0 l/m 0,0 km/h (0 Bft) SW 214 5 min 0,000 mm 1,1 UV-I 304 W/m 10,0 C 15,7 C 1,6 km/h (1 Bft)
18.10.2013 15:30 15,8 C 68 % 1018,7 hPa 0,0 l/m 0,8 km/h (0 Bft) SW 214 5 min 0,000 mm 1,1 UV-I 322 W/m 9,9 C 15,8 C 3,2 km/h (1 Bft)
18.10.2013 15:35 16,0 C 67 % 1018,7 hPa 0,0 l/m 0,6 km/h (0 Bft) SW 214 5 min 0,000 mm 1,1 UV-I 311 W/m 9,9 C 16,0 C 4,8 km/h (1 Bft)
18.10.2013 15:40 16,2 C 67 % 1018,7 hPa 0,0 l/m 0,9 km/h (0 Bft) SW 214 5 min 0,000 mm 1,0 UV-I 320 W/m 10,1 C 16,2 C 4,8 km/h (1 Bft)
18.10.2013 15:45 16,1 C 65 % 1018,6 hPa 0,0 l/m 0,6 km/h (0 Bft) S 170 5 min 0,000 mm 1,0 UV-I 329 W/m 9,5 C 16,1 C 3,2 km/h (1 Bft)
18.10.2013 15:50 15,7 C 65 % 1018,7 hPa 0,0 l/m 1,1 km/h (1 Bft) S 176 5 min 0,000 mm 0,9 UV-I 287 W/m 9,1 C 15,7 C 4,8 km/h (1 Bft)
18.10.2013 15:55 16,3 C 66 % 1018,7 hPa 0,0 l/m 0,0 km/h (0 Bft) S 176 5 min 0,000 mm 0,8 UV-I 214 W/m 9,9 C 16,3 C 1,6 km/h (1 Bft)
18.10.2013 16:00 16,3 C 65 % 1018,6 hPa 0,0 l/m 0,6 km/h (0 Bft) S-SW 202 0 min 0,000 mm 0,7 UV-I 144 W/m 9,7 C 16,3 C 4,8 km/h (1 Bft)
18.10.2013 16:05 15,8 C 66 % 1018,6 hPa 0,0 l/m 0,5 km/h (0 Bft) S-SW 195 5 min 0,152 mm 0,7 UV-I 209 W/m 9,5 C 15,8 C 3,2 km/h (1 Bft)
18.10.2013 16:10 16,1 C 67 % 1018,6 hPa 0,0 l/m 0,1 km/h (0 Bft) S-SW 195 0 min 0,000 mm 0,7 UV-I 149 W/m 10,0 C 16,1 C 1,6 km/h (1 Bft)
18.10.2013 16:15 16,2 C 66 % 1018,6 hPa 0,0 l/m 0,5 km/h (0 Bft) S-SW 195 0 min 0,000 mm 0,6 UV-I 153 W/m 9,8 C 16,2 C 4,8 km/h (1 Bft)
18.10.2013 16:20 15,9 C 64 % 1018,6 hPa 0,0 l/m 0,3 km/h (0 Bft) S 184 5 min 0,000 mm 0,6 UV-I 248 W/m 9,1 C 15,9 C 3,2 km/h (1 Bft)
18.10.2013 16:25 15,8 C 65 % 1018,5 hPa 0,0 l/m 0,3 km/h (0 Bft) S 184 5 min 0,000 mm 0,6 UV-I 292 W/m 9,2 C 15,8 C 3,2 km/h (1 Bft)
18.10.2013 16:30 16,2 C 64 % 1018,4 hPa 0,0 l/m 0,2 km/h (0 Bft) S 184 5 min 0,000 mm 0,6 UV-I 262 W/m 9,4 C 16,2 C 1,6 km/h (1 Bft)
18.10.2013 16:35 15,7 C 66 % 1018,4 hPa 0,0 l/m 1,8 km/h (1 Bft) O-SO 115 5 min 0,000 mm 0,5 UV-I 269 W/m 9,4 C 15,7 C 6,4 km/h (2 Bft)
18.10.2013 16:40 15,3 C 63 % 1018,5 hPa 0,0 l/m 2,6 km/h (1 Bft) SO 143 5 min 0,000 mm 0,5 UV-I 234 W/m 8,3 C 15,3 C 8,0 km/h (2 Bft)
18.10.2013 16:45 15,3 C 66 % 1018,5 hPa 0,0 l/m 2,0 km/h (1 Bft) S 170 5 min 0,000 mm 0,5 UV-I 246 W/m 9,0 C 15,3 C 6,4 km/h (2 Bft)
18.10.2013 16:50 15,4 C 66 % 1018,4 hPa 0,0 l/m 2,5 km/h (1 Bft) SO 133 5 min 0,000 mm 0,0 UV-I 211 W/m 9,1 C 15,4 C 8,0 km/h (2 Bft)
18.10.2013 16:55 15,0 C 66 % 1018,4 hPa 0,0 l/m 2,2 km/h (1 Bft) O-NO 71 5 min 0,000 mm 0,0 UV-I 192 W/m 8,7 C 15,0 C 6,4 km/h (2 Bft)
18.10.2013 17:00 14,9 C 66 % 1018,3 hPa 0,0 l/m 2,0 km/h (1 Bft) O-SO 107 5 min 0,000 mm 0,0 UV-I 169 W/m 8,6 C 14,9 C 4,8 km/h (1 Bft)
18.10.2013 17:05 15,0 C 66 % 1018,4 hPa 0,0 l/m 1,0 km/h (0 Bft) O-SO 118 5 min 0,127 mm 0,0 UV-I 167 W/m 8,7 C 15,0 C 4,8 km/h (1 Bft)
18.10.2013 17:10 14,8 C 68 % 1018,4 hPa 0,0 l/m 1,2 km/h (1 Bft) SO 146 5 min 0,000 mm 0,0 UV-I 120 W/m 9,0 C 14,8 C 4,8 km/h (1 Bft)
18.10.2013 17:15 14,7 C 67 % 1018,3 hPa 0,0 l/m 1,4 km/h (1 Bft) SO 142 5 min 0,000 mm 0,0 UV-I 97 W/m 8,6 C 14,7 C 4,8 km/h (1 Bft)
18.10.2013 17:20 14,6 C 68 % 1018,3 hPa 0,0 l/m 0,3 km/h (0 Bft) SO 142 0 min 0,000 mm 0,0 UV-I 56 W/m 8,8 C 14,6 C 3,2 km/h (1 Bft)
18.10.2013 17:25 14,4 C 68 % 1018,3 hPa 0,0 l/m 0,1 km/h (0 Bft) SO 142 0 min 0,000 mm 0,0 UV-I 44 W/m 8,6 C 14,4 C 1,6 km/h (1 Bft)
18.10.2013 17:30 14,3 C 69 % 1018,2 hPa 0,0 l/m 0,0 km/h (0 Bft) SO 142 0 min 0,000 mm 0,0 UV-I 37 W/m 8,7 C 14,3 C 0,0 km/h (0 Bft)
18.10.2013 17:35 14,3 C 69 % 1018,2 hPa 0,0 l/m 0,0 km/h (0 Bft) SO 142 0 min 0,000 mm 0,0 UV-I 37 W/m 8,7 C 14,3 C 0,0 km/h (0 Bft)
18.10.2013 17:40 14,3 C 70 % 1018,2 hPa 0,0 l/m 0,0 km/h (0 Bft) SO 142 0 min 0,000 mm 0,0 UV-I 37 W/m 8,9 C 14,3 C 0,0 km/h (0 Bft)
18.10.2013 17:45 14,3 C 70 % 1018,2 hPa 0,0 l/m 0,0 km/h (0 Bft) SO 142 0 min 0,000 mm 0,0 UV-I 37 W/m 8,9 C 14,3 C 0,0 km/h (0 Bft)
18.10.2013 17:50 14,3 C 71 % 1018,2 hPa 0,0 l/m 0,1 km/h (0 Bft) SO 142 0 min 0,000 mm 0,0 UV-I 35 W/m 9,1 C 14,3 C 1,6 km/h (1 Bft)
18.10.2013 17:55 14,1 C 72 % 1018,2 hPa 0,0 l/m 0,0 km/h (0 Bft) SO 142 0 min 0,000 mm 0,0 UV-I 30 W/m 9,1 C 14,1 C 0,0 km/h (0 Bft)
18.10.2013 18:00 13,9 C 73 % 1018,2 hPa 0,0 l/m 0,0 km/h (0 Bft) SO 142 0 min 0,000 mm 0,0 UV-I 21 W/m 9,1 C 13,9 C 0,0 km/h (0 Bft)
18.10.2013 18:05 13,7 C 74 % 1018,2 hPa 0,0 l/m 0,0 km/h (0 Bft) SO 142 0 min 0,051 mm 0,0 UV-I 16 W/m 9,2 C 13,7 C 0,0 km/h (0 Bft)
18.10.2013 18:10 13,4 C 74 % 1018,3 hPa 0,0 l/m 0,0 km/h (0 Bft) SO 142 0 min 0,000 mm 0,0 UV-I 12 W/m 8,9 C 13,4 C 0,0 km/h (0 Bft)
18.10.2013 18:15 13,1 C 75 % 1018,3 hPa 0,0 l/m 0,0 km/h (0 Bft) SO 142 0 min 0,000 mm 0,0 UV-I 9 W/m 8,8 C 13,1 C 0,0 km/h (0 Bft)
18.10.2013 18:20 12,8 C 75 % 1018,3 hPa 0,0 l/m 0,0 km/h (0 Bft) SO 142 0 min 0,000 mm 0,0 UV-I 5 W/m 8,5 C 12,8 C 0,0 km/h (0 Bft)
18.10.2013 18:25 12,6 C 77 % 1018,3 hPa 0,0 l/m 0,0 km/h (0 Bft) SO 142 0 min 0,000 mm 0,0 UV-I 0 W/m 8,7 C 12,6 C 0,0 km/h (0 Bft)
18.10.2013 18:30 12,4 C 76 % 1018,4 hPa 0,0 l/m 0,1 km/h (0 Bft) O-SO 119 0 min 0,000 mm 0,0 UV-I 0 W/m 8,3 C 12,4 C 1,6 km/h (1 Bft)
18.10.2013 18:35 12,1 C 77 % 1018,3 hPa 0,0 l/m 0,1 km/h (0 Bft) O-SO 119 0 min 0,000 mm 0,0 UV-I 0 W/m 8,2 C 12,1 C 1,6 km/h (1 Bft)
18.10.2013 18:40 11,9 C 78 % 1018,3 hPa 0,0 l/m 0,0 km/h (0 Bft) O-SO 119 0 min 0,000 mm 0,0 UV-I 0 W/m 8,2 C 11,9 C 0,0 km/h (0 Bft)
18.10.2013 18:45 11,6 C 80 % 1018,4 hPa 0,0 l/m 0,0 km/h (0 Bft) O-SO 119 0 min 0,000 mm 0,0 UV-I 0 W/m 8,3 C 11,6 C 0,0 km/h (0 Bft)
18.10.2013 18:50 11,3 C 81 % 1018,3 hPa 0,0 l/m 0,1 km/h (0 Bft) O-SO 119 0 min 0,000 mm 0,0 UV-I 0 W/m 8,2 C 11,3 C 1,6 km/h (1 Bft)
18.10.2013 18:55 11,0 C 82 % 1018,4 hPa 0,0 l/m 0,0 km/h (0 Bft) O-SO 119 0 min 0,000 mm 0,0 UV-I 0 W/m 8,0 C 11,0 C 0,0 km/h (0 Bft)
18.10.2013 19:00 10,7 C 83 % 1018,4 hPa 0,0 l/m 0,0 km/h (0 Bft) O-SO 119 0 min 0,000 mm 0,0 UV-I 0 W/m 7,9 C 10,7 C 0,0 km/h (0 Bft)
18.10.2013 19:05 10,5 C 84 % 1018,4 hPa 0,0 l/m 0,0 km/h (0 Bft) O-SO 119 0 min 0,000 mm 0,0 UV-I 0 W/m 7,9 C 10,5 C 0,0 km/h (0 Bft)
18.10.2013 19:10 10,2 C 85 % 1018,4 hPa 0,0 l/m 0,2 km/h (0 Bft) O-SO 119 0 min 0,000 mm 0,0 UV-I 0 W/m 7,8 C 10,2 C 1,6 km/h (1 Bft)
18.10.2013 19:15 10,0 C 86 % 1018,5 hPa 0,0 l/m 0,1 km/h (0 Bft) O-SO 119 0 min 0,000 mm 0,0 UV-I 0 W/m 7,8 C 10,0 C 1,6 km/h (1 Bft)
18.10.2013 19:20 9,9 C 87 % 1018,6 hPa 0,0 l/m 0,0 km/h (0 Bft) O-SO 119 0 min 0,000 mm 0,0 UV-I 0 W/m 7,8 C 9,9 C 1,6 km/h (1 Bft)
18.10.2013 19:25 9,8 C 87 % 1018,5 hPa 0,0 l/m 0,0 km/h (0 Bft) O-SO 119 0 min 0,000 mm 0,0 UV-I 0 W/m 7,7 C 9,8 C 0,0 km/h (0 Bft)
18.10.2013 19:30 9,8 C 87 % 1018,6 hPa 0,0 l/m 0,0 km/h (0 Bft) O-SO 119 0 min 0,000 mm 0,0 UV-I 0 W/m 7,7 C 9,8 C 0,0 km/h (0 Bft)
18.10.2013 19:35 9,7 C 87 % 1018,6 hPa 0,0 l/m 0,0 km/h (0 Bft) O-SO 119 0 min 0,000 mm 0,0 UV-I 0 W/m 7,6 C 9,7 C 0,0 km/h (0 Bft)
18.10.2013 19:40 9,6 C 87 % 1018,6 hPa 0,0 l/m 0,0 km/h (0 Bft) O-SO 119 0 min 0,000 mm 0,0 UV-I 0 W/m 7,5 C 9,6 C 1,6 km/h (1 Bft)
18.10.2013 19:45 9,3 C 88 % 1018,6 hPa 0,0 l/m 0,0 km/h (0 Bft) O-SO 119 0 min 0,000 mm 0,0 UV-I 0 W/m 7,4 C 9,3 C 1,6 km/h (1 Bft)
18.10.2013 19:50 9,2 C 89 % 1018,6 hPa 0,0 l/m 0,1 km/h (0 Bft) O-SO 119 0 min 0,000 mm 0,0 UV-I 0 W/m 7,5 C 9,2 C 1,6 km/h (1 Bft)
18.10.2013 19:55 9,1 C 89 % 1018,6 hPa 0,0 l/m 0,0 km/h (0 Bft) O-SO 119 0 min 0,000 mm 0,0 UV-I 0 W/m 7,4 C 9,1 C 0,0 km/h (0 Bft)
18.10.2013 20:00 8,9 C 90 % 1018,6 hPa 0,0 l/m 0,0 km/h (0 Bft) O-SO 119 0 min 0,000 mm 0,0 UV-I 0 W/m 7,4 C 8,9 C 1,6 km/h (1 Bft)
18.10.2013 20:05 8,9 C 90 % 1018,6 hPa 0,0 l/m 0,0 km/h (0 Bft) O-SO 119 0 min 0,000 mm 0,0 UV-I 0 W/m 7,4 C 8,9 C 0,0 km/h (0 Bft)
18.10.2013 20:10 8,9 C 90 % 1018,7 hPa 0,0 l/m 0,0 km/h (0 Bft) O-SO 119 0 min 0,000 mm 0,0 UV-I 0 W/m 7,4 C 8,9 C 0,0 km/h (0 Bft)
18.10.2013 20:15 8,9 C 91 % 1018,7 hPa 0,0 l/m 0,1 km/h (0 Bft) O-SO 119 0 min 0,000 mm 0,0 UV-I 0 W/m 7,5 C 8,9 C 1,6 km/h (1 Bft)
18.10.2013 20:20 8,8 C 91 % 1018,7 hPa 0,0 l/m 0,0 km/h (0 Bft) O-SO 119 0 min 0,000 mm 0,0 UV-I 0 W/m 7,4 C 8,8 C 0,0 km/h (0 Bft)
18.10.2013 20:25 8,8 C 91 % 1018,7 hPa 0,0 l/m 0,0 km/h (0 Bft) O-SO 119 0 min 0,000 mm 0,0 UV-I 0 W/m 7,4 C 8,8 C 1,6 km/h (1 Bft)
18.10.2013 20:30 8,7 C 91 % 1018,7 hPa 0,0 l/m 0,0 km/h (0 Bft) O-SO 119 0 min 0,000 mm 0,0 UV-I 0 W/m 7,3 C 8,7 C 1,6 km/h (1 Bft)
18.10.2013 20:35 8,7 C 91 % 1018,7 hPa 0,0 l/m 0,6 km/h (0 Bft) O-NO 64 0 min 0,000 mm 0,0 UV-I 0 W/m 7,3 C 8,7 C 3,2 km/h (1 Bft)
18.10.2013 20:40 8,7 C 92 % 1018,7 hPa 0,0 l/m 0,2 km/h (0 Bft) O-NO 64 0 min 0,000 mm 0,0 UV-I 0 W/m 7,5 C 8,7 C 1,6 km/h (1 Bft)
18.10.2013 20:45 8,7 C 92 % 1018,7 hPa 0,0 l/m 0,0 km/h (0 Bft) O-NO 64 0 min 0,000 mm 0,0 UV-I 0 W/m 7,5 C 8,7 C 1,6 km/h (1 Bft)
18.10.2013 20:50 8,7 C 92 % 1018,7 hPa 0,0 l/m 0,0 km/h (0 Bft) O-NO 64 0 min 0,000 mm 0,0 UV-I 0 W/m 7,5 C 8,7 C 0,0 km/h (0 Bft)
18.10.2013 20:55 8,6 C 92 % 1018,7 hPa 0,0 l/m 0,1 km/h (0 Bft) O-NO 64 0 min 0,000 mm 0,0 UV-I 0 W/m 7,4 C 8,6 C 1,6 km/h (1 Bft)
18.10.2013 21:00 8,5 C 91 % 1018,7 hPa 0,0 l/m 0,0 km/h (0 Bft) O-NO 64 0 min 0,000 mm 0,0 UV-I 0 W/m 7,1 C 8,5 C 1,6 km/h (1 Bft)
18.10.2013 21:05 8,4 C 92 % 1018,7 hPa 0,0 l/m 0,1 km/h (0 Bft) O-NO 64 0 min 0,000 mm 0,0 UV-I 0 W/m 7,2 C 8,4 C 1,6 km/h (1 Bft)
18.10.2013 21:10 8,3 C 92 % 1018,7 hPa 0,0 l/m 0,0 km/h (0 Bft) O-NO 64 0 min 0,000 mm 0,0 UV-I 0 W/m 7,1 C 8,3 C 0,0 km/h (0 Bft)
18.10.2013 21:15 8,3 C 92 % 1018,6 hPa 0,0 l/m 0,0 km/h (0 Bft) O-NO 64 0 min 0,000 mm 0,0 UV-I 0 W/m 7,1 C 8,3 C 0,0 km/h (0 Bft)
18.10.2013 21:20 8,3 C 92 % 1018,6 hPa 0,0 l/m 0,0 km/h (0 Bft) O-NO 64 0 min 0,000 mm 0,0 UV-I 0 W/m 7,1 C 8,3 C 0,0 km/h (0 Bft)
18.10.2013 21:25 8,3 C 92 % 1018,5 hPa 0,0 l/m 0,0 km/h (0 Bft) O-NO 64 0 min 0,000 mm 0,0 UV-I 0 W/m 7,1 C 8,3 C 0,0 km/h (0 Bft)
18.10.2013 21:30 8,2 C 92 % 1018,5 hPa 0,0 l/m 0,1 km/h (0 Bft) O-NO 64 0 min 0,000 mm 0,0 UV-I 0 W/m 7,0 C 8,2 C 1,6 km/h (1 Bft)
18.10.2013 21:35 8,1 C 93 % 1018,5 hPa 0,0 l/m 0,0 km/h (0 Bft) O-NO 64 0 min 0,000 mm 0,0 UV-I 0 W/m 7,0 C 8,1 C 0,0 km/h (0 Bft)
18.10.2013 21:40 8,1 C 93 % 1018,5 hPa 0,0 l/m 0,0 km/h (0 Bft) O-NO 64 0 min 0,000 mm 0,0 UV-I 0 W/m 7,0 C 8,1 C 0,0 km/h (0 Bft)
18.10.2013 21:45 8,0 C 93 % 1018,5 hPa 0,0 l/m 0,0 km/h (0 Bft) O-NO 64 0 min 0,000 mm 0,0 UV-I 0 W/m 6,9 C 8,0 C 0,0 km/h (0 Bft)
18.10.2013 21:50 7,9 C 93 % 1018,5 hPa 0,0 l/m 0,0 km/h (0 Bft) O-NO 64 0 min 0,000 mm 0,0 UV-I 0 W/m 6,8 C 7,9 C 0,0 km/h (0 Bft)
18.10.2013 21:55 7,8 C 93 % 1018,7 hPa 0,0 l/m 0,0 km/h (0 Bft) O-NO 64 0 min 0,000 mm 0,0 UV-I 0 W/m 6,7 C 7,8 C 0,0 km/h (0 Bft)
18.10.2013 22:00 7,9 C 93 % 1018,7 hPa 0,0 l/m 0,0 km/h (0 Bft) O-NO 64 0 min 0,000 mm 0,0 UV-I 0 W/m 6,8 C 7,9 C 1,6 km/h (1 Bft)
18.10.2013 22:05 7,9 C 93 % 1018,7 hPa 0,0 l/m 0,1 km/h (0 Bft) O-NO 64 0 min 0,000 mm 0,0 UV-I 0 W/m 6,8 C 7,9 C 1,6 km/h (1 Bft)
18.10.2013 22:10 7,9 C 93 % 1018,7 hPa 0,0 l/m 0,4 km/h (0 Bft) NO 51 0 min 0,000 mm 0,0 UV-I 0 W/m 6,8 C 7,9 C 3,2 km/h (1 Bft)
18.10.2013 22:15 7,9 C 93 % 1018,6 hPa 0,0 l/m 0,6 km/h (0 Bft) O-NO 60 0 min 0,000 mm 0,0 UV-I 0 W/m 6,8 C 7,9 C 3,2 km/h (1 Bft)
18.10.2013 22:20 7,8 C 93 % 1018,6 hPa 0,0 l/m 0,2 km/h (0 Bft) O-NO 60 0 min 0,000 mm 0,0 UV-I 0 W/m 6,7 C 7,8 C 1,6 km/h (1 Bft)
18.10.2013 22:25 7,8 C 93 % 1018,6 hPa 0,0 l/m 0,0 km/h (0 Bft) O-NO 60 0 min 0,000 mm 0,0 UV-I 0 W/m 6,7 C 7,8 C 0,0 km/h (0 Bft)
18.10.2013 22:30 7,8 C 93 % 1018,6 hPa 0,0 l/m 0,0 km/h (0 Bft) O-NO 60 0 min 0,000 mm 0,0 UV-I 0 W/m 6,7 C 7,8 C 1,6 km/h (1 Bft)
18.10.2013 22:35 7,7 C 93 % 1018,5 hPa 0,0 l/m 0,0 km/h (0 Bft) O-NO 60 0 min 0,000 mm 0,0 UV-I 0 W/m 6,6 C 7,7 C 1,6 km/h (1 Bft)
18.10.2013 22:40 7,7 C 93 % 1018,4 hPa 0,0 l/m 0,3 km/h (0 Bft) O-NO 60 0 min 0,000 mm 0,0 UV-I 0 W/m 6,6 C 7,7 C 3,2 km/h (1 Bft)
18.10.2013 22:45 7,6 C 93 % 1018,4 hPa 0,0 l/m 0,1 km/h (0 Bft) O-NO 60 0 min 0,000 mm 0,0 UV-I 0 W/m 6,5 C 7,6 C 3,2 km/h (1 Bft)
18.10.2013 22:50 7,4 C 93 % 1018,4 hPa 0,0 l/m 0,0 km/h (0 Bft) O-NO 60 0 min 0,000 mm 0,0 UV-I 0 W/m 6,3 C 7,4 C 0,0 km/h (0 Bft)
18.10.2013 22:55 7,4 C 93 % 1018,5 hPa 0,0 l/m 0,0 km/h (0 Bft) O-NO 60 0 min 0,000 mm 0,0 UV-I 0 W/m 6,3 C 7,4 C 1,6 km/h (1 Bft)
18.10.2013 23:00 7,2 C 93 % 1018,6 hPa 0,0 l/m 0,0 km/h (0 Bft) O-NO 60 0 min 0,000 mm 0,0 UV-I 0 W/m 6,1 C 7,2 C 0,0 km/h (0 Bft)
18.10.2013 23:05 7,1 C 93 % 1018,6 hPa 0,0 l/m 0,0 km/h (0 Bft) O-NO 60 0 min 0,000 mm 0,0 UV-I 0 W/m 6,0 C 7,1 C 0,0 km/h (0 Bft)
18.10.2013 23:10 7,0 C 93 % 1018,6 hPa 0,0 l/m 0,0 km/h (0 Bft) O-NO 60 0 min 0,000 mm 0,0 UV-I 0 W/m 5,9 C 7,0 C 0,0 km/h (0 Bft)
18.10.2013 23:15 6,9 C 93 % 1018,6 hPa 0,0 l/m 0,7 km/h (0 Bft) NO 53 0 min 0,000 mm 0,0 UV-I 0 W/m 5,8 C 6,9 C 3,2 km/h (1 Bft)
18.10.2013 23:20 6,9 C 94 % 1018,5 hPa 0,0 l/m 0,5 km/h (0 Bft) NO 53 0 min 0,000 mm 0,0 UV-I 0 W/m 6,0 C 6,9 C 3,2 km/h (1 Bft)
18.10.2013 23:25 6,9 C 94 % 1018,5 hPa 0,0 l/m 0,2 km/h (0 Bft) NO 53 0 min 0,000 mm 0,0 UV-I 0 W/m 6,0 C 6,9 C 1,6 km/h (1 Bft)
18.10.2013 23:30 6,9 C 94 % 1018,5 hPa 0,0 l/m 0,7 km/h (0 Bft) N-NO 30 0 min 0,000 mm 0,0 UV-I 0 W/m 6,0 C 6,9 C 3,2 km/h (1 Bft)
18.10.2013 23:35 7,1 C 94 % 1018,4 hPa 0,0 l/m 0,3 km/h (0 Bft) NO 37 0 min 0,000 mm 0,0 UV-I 0 W/m 6,2 C 7,1 C 3,2 km/h (1 Bft)
18.10.2013 23:40 6,9 C 94 % 1018,3 hPa 0,0 l/m 0,2 km/h (0 Bft) O 88 0 min 0,000 mm 0,0 UV-I 0 W/m 6,0 C 6,9 C 1,6 km/h (1 Bft)
18.10.2013 23:45 6,7 C 93 % 1018,2 hPa 0,0 l/m 0,0 km/h (0 Bft) O 88 0 min 0,000 mm 0,0 UV-I 0 W/m 5,6 C 6,7 C 1,6 km/h (1 Bft)
18.10.2013 23:50 6,6 C 93 % 1018,3 hPa 0,0 l/m 0,0 km/h (0 Bft) O 88 0 min 0,000 mm 0,0 UV-I 0 W/m 5,6 C 6,6 C 0,0 km/h (0 Bft)
18.10.2013 23:55 6,5 C 94 % 1018,3 hPa 0,0 l/m 0,0 km/h (0 Bft) O 88 0 min 0,000 mm 0,0 UV-I 0 W/m 5,6 C 6,5 C 0,0 km/h (0 Bft)
_ Min-Zeit 08:10 16:40 00:00 - 05:20 - - - - - - 07:50 07:50 05:20
Minimum _ 5,8 C 63 % 1016,1 hPa - 0,0 km/h (0 Bft) - - - - - - 4,9 C 5,9 C 0,0 km/h (0 Bft)
_ Max-Zeit 16:00 09:00 12:20 00:00 03:40 - - 08:20 13:05 12:35 12:00 12:50 15:55 04:50
Maximum _ 16,4 C 96 % 1019,7 hPa 0,0 l/m 4,9 km/h
W (1 Bft)
- - 5 min 0,178 mm 2,1 UV-I 594 W/m 10,6 C 16,3 C 16,1 km/h
W (3 Bft)
Durchschnitt _ 10,7 C 85 % 1018,3 hPa #0,0 l/m 0,9 km/h (0 Bft) W - #4:30 h #1,016 mm 1,1 UV-I 179 W/m 8,2 C 10,7 C 3,2 km/h (1 Bft)